User: anonymous   Login
Location: Unspecified
(0.0000°N, 0.0000°E)
Time: 12:58:21
(UTC+00:00)
Language:

GONETS M 06 - Orbit

View from above orbital plane
View from above orbital plane
View from above satellite
View from above satellite

Ground track
Ground track

The orbit data is extracted from the following two-line orbital elements,

1 39250U 13048B   17352.20018290  .00000027  00000-0  12407-3 0  9991
2 39250  82.4842 118.1920 0018453 169.8733 190.2725 12.42922378193570
Epoch (UTC): 18 December 2017 04:48:15
Eccentricity: 0.0018453
inclination: 82.4842°
perigee height: 1480 km
apogee height: 1509 km
right ascension of ascending node: 118.1920°
argument of perigee: 169.8733°
revolutions per day: 12.42922378
mean anomaly at epoch: 190.2725°
orbit number at epoch: 19357

The dashed part of the orbit path shows where the satellite is in the earth's shadow,  

DLR